Time,TemperatureF,DewpointF,PressureIn,WindDirection,WindDirectionDegrees,WindSpeedMPH,WindSpeedGustMPH,Humidity,HourlyPrecipIn,Conditions,Clouds,dailyrainin,SoftwareType,DateUTC
2013-08-03 00:02:00,50.9,45.6,29.90,NNW,327,4.0,6.0,82,0.00,,---,0.00,VWS V14.01,2013-08-03 06:02:00,
2013-08-03 00:07:00,50.9,45.6,29.91,NNW,327,2.0,4.0,82,0.00,,---,0.00,VWS V14.01,2013-08-03 06:07:00,
2013-08-03 00:12:00,50.7,45.4,29.91,NNW,327,4.0,4.0,82,0.00,,---,0.00,VWS V14.01,2013-08-03 06:12:00,
2013-08-03 00:17:00,50.4,45.1,29.91,NNW,327,3.0,4.0,82,0.00,,---,0.00,VWS V14.01,2013-08-03 06:17:00,
2013-08-03 00:22:00,50.2,45.2,29.91,NNW,327,3.0,3.0,83,0.00,,---,0.00,VWS V14.01,2013-08-03 06:22:00,
2013-08-03 00:27:00,49.9,45.0,29.91,NNW,327,4.0,4.0,83,0.00,,---,0.00,VWS V14.01,2013-08-03 06:27:00,
2013-08-03 00:32:00,49.5,44.9,29.91,NNW,327,4.0,4.0,84,0.00,,---,0.00,VWS V14.01,2013-08-03 06:32:00,
2013-08-03 00:37:00,49.6,44.3,29.91,NNW,327,2.0,2.0,82,0.00,,---,0.00,VWS V14.01,2013-08-03 06:37:00,
2013-08-03 00:42:00,49.9,44.3,29.91,NNW,327,0.0,0.0,81,0.00,,---,0.00,VWS V14.01,2013-08-03 06:42:00,
2013-08-03 00:47:00,50.1,44.8,29.91,NNW,327,3.0,3.0,82,0.00,,---,0.00,VWS V14.01,2013-08-03 06:47:00,
2013-08-03 00:52:00,50.0,44.7,29.91,NNW,327,0.0,0.0,82,0.00,,---,0.00,VWS V14.01,2013-08-03 06:52:00,
2013-08-03 00:57:00,49.9,44.6,29.91,NNW,327,0.0,0.0,82,0.00,,---,0.00,VWS V14.01,2013-08-03 06:57:00,
2013-08-03 01:02:00,49.6,44.3,29.91,NNW,327,2.0,2.0,82,0.00,,---,0.00,VWS V14.01,2013-08-03 07:02:00,
2013-08-03 01:07:00,49.2,44.3,29.91,NNW,327,3.0,3.0,83,0.00,,---,0.00,VWS V14.01,2013-08-03 07:07:00,
2013-08-03 01:12:00,48.8,44.2,29.91,NNW,327,6.0,7.0,84,0.00,,---,0.00,VWS V14.01,2013-08-03 07:12:00,
2013-08-03 01:17:00,48.5,44.2,29.92,NNW,327,4.0,5.0,85,0.00,,---,0.00,VWS V14.01,2013-08-03 07:17:00,
2013-08-03 01:22:00,48.4,44.4,29.92,NNW,327,0.0,2.0,86,0.00,,---,0.00,VWS V14.01,2013-08-03 07:22:00,
2013-08-03 01:27:00,48.5,44.2,29.91,NNW,327,3.0,4.0,85,0.00,,---,0.00,VWS V14.01,2013-08-03 07:27:00,
2013-08-03 01:32:00,48.5,44.5,29.91,NNW,327,4.0,5.0,86,0.00,,---,0.00,VWS V14.01,2013-08-03 07:32:00,
2013-08-03 01:37:00,48.5,44.2,29.91,NNW,327,3.0,5.0,85,0.00,,---,0.00,VWS V14.01,2013-08-03 07:37:00,
2013-08-03 01:43:00,48.3,44.0,29.91,NNW,327,5.0,5.0,85,0.00,,---,0.00,VWS V14.01,2013-08-03 07:43:00,
2013-08-03 01:47:00,48.2,43.9,29.91,NNW,327,6.0,6.0,85,0.00,,---,0.00,VWS V14.01,2013-08-03 07:47:00,
2013-08-03 01:52:00,48.2,44.2,29.91,NNW,327,6.0,7.0,86,0.00,,---,0.00,VWS V14.01,2013-08-03 07:52:00,
2013-08-03 01:58:00,48.3,44.0,29.91,NNW,327,7.0,7.0,85,0.00,,---,0.00,VWS V14.01,2013-08-03 07:58:00,
2013-08-03 02:03:00,48.4,44.1,29.91,NNW,327,3.0,3.0,85,0.00,,---,0.00,VWS V14.01,2013-08-03 08:03:00,
2013-08-03 02:08:00,48.2,43.9,29.91,NNW,327,0.0,0.0,85,0.00,,---,0.00,VWS V14.01,2013-08-03 08:08:00,
2013-08-03 02:13:00,48.1,44.1,29.91,NNW,327,0.0,0.0,86,0.00,,---,0.00,VWS V14.01,2013-08-03 08:13:00,
2013-08-03 02:18:00,48.1,43.8,29.91,NNW,327,0.0,0.0,85,0.00,,---,0.00,VWS V14.01,2013-08-03 08:18:00,
2013-08-03 02:23:00,48.1,44.1,29.91,NNW,327,2.0,2.0,86,0.00,,---,0.00,VWS V14.01,2013-08-03 08:23:00,
2013-08-03 02:28:00,48.1,44.1,29.91,NNW,327,3.0,4.0,86,0.00,,---,0.00,VWS V14.01,2013-08-03 08:28:00,
2013-08-03 02:33:00,48.0,44.0,29.91,NNW,327,1.0,1.0,86,0.00,,---,0.00,VWS V14.01,2013-08-03 08:33:00,
2013-08-03 02:38:00,47.9,43.9,29.91,NNW,327,3.0,3.0,86,0.00,,---,0.00,VWS V14.01,2013-08-03 08:38:00,
2013-08-03 02:43:00,47.8,43.8,29.91,NNW,327,1.0,3.0,86,0.00,,---,0.00,VWS V14.01,2013-08-03 08:43:00,
2013-08-03 02:48:00,47.7,43.7,29.91,NNW,327,0.0,0.0,86,0.00,,---,0.00,VWS V14.01,2013-08-03 08:48:00,
2013-08-03 02:53:00,47.5,43.5,29.91,NNW,327,0.0,0.0,86,0.00,,---,0.00,VWS V14.01,2013-08-03 08:53:00,
2013-08-03 02:58:00,47.3,43.3,29.91,NNW,327,0.0,0.0,86,0.00,,---,0.00,VWS V14.01,2013-08-03 08:58:00,
2013-08-03 03:03:00,47.2,43.2,29.91,NNW,327,0.0,0.0,86,0.00,,---,0.00,VWS V14.01,2013-08-03 09:03:00,
2013-08-03 03:08:00,47.1,43.1,29.91,NNW,327,0.0,0.0,86,0.00,,---,0.00,VWS V14.01,2013-08-03 09:08:00,
2013-08-03 03:13:00,47.1,43.1,29.91,NNW,327,0.0,0.0,86,0.00,,---,0.00,VWS V14.01,2013-08-03 09:13:00,
2013-08-03 03:18:00,47.0,43.0,29.91,NNW,327,0.0,0.0,86,0.00,,---,0.00,VWS V14.01,2013-08-03 09:18:00,
2013-08-03 03:23:00,46.7,42.7,29.92,NNW,327,0.0,0.0,86,0.00,,---,0.00,VWS V14.01,2013-08-03 09:23:00,
2013-08-03 03:28:00,46.4,42.8,29.92,NNW,327,0.0,0.0,87,0.00,,---,0.00,VWS V14.01,2013-08-03 09:28:00,
2013-08-03 03:33:00,45.9,42.0,29.92,NNW,327,4.0,4.0,86,0.00,,---,0.00,VWS V14.01,2013-08-03 09:33:00,
2013-08-03 03:38:00,45.5,41.9,29.92,NNW,327,5.0,7.0,87,0.00,,---,0.00,VWS V14.01,2013-08-03 09:38:00,
2013-08-03 03:43:00,45.4,42.1,29.92,NNW,327,3.0,3.0,88,0.00,,---,0.00,VWS V14.01,2013-08-03 09:43:00,
2013-08-03 03:48:00,45.6,42.5,29.92,NNW,327,3.0,3.0,89,0.00,,---,0.00,VWS V14.01,2013-08-03 09:48:00,
2013-08-03 03:53:00,45.9,42.8,29.92,NNW,327,2.0,3.0,89,0.00,,---,0.00,VWS V14.01,2013-08-03 09:53:00,
2013-08-03 03:58:00,46.0,42.7,29.92,NNW,327,0.0,0.0,88,0.00,,---,0.00,VWS V14.01,2013-08-03 09:58:00,
2013-08-03 04:03:00,45.9,42.5,29.92,NNW,327,0.0,0.0,88,0.00,,---,0.00,VWS V14.01,2013-08-03 10:03:00,
2013-08-03 04:08:00,45.8,42.5,29.92,NNW,327,0.0,4.0,88,0.00,,---,0.00,VWS V14.01,2013-08-03 10:08:00,
2013-08-03 04:13:00,45.8,42.5,29.92,NNW,327,0.0,0.0,88,0.00,,---,0.00,VWS V14.01,2013-08-03 10:13:00,
2013-08-03 04:18:00,45.8,42.5,29.92,NNW,327,3.0,3.0,88,0.00,,---,0.00,VWS V14.01,2013-08-03 10:18:00,
2013-08-03 04:23:00,45.7,42.4,29.92,NNW,327,4.0,4.0,88,0.00,,---,0.00,VWS V14.01,2013-08-03 10:23:00,
2013-08-03 04:28:00,45.6,42.5,29.92,NNW,327,5.0,5.0,89,0.00,,---,0.00,VWS V14.01,2013-08-03 10:28:00,
2013-08-03 04:33:00,45.6,42.5,29.92,NNW,327,7.0,7.0,89,0.00,,---,0.00,VWS V14.01,2013-08-03 10:33:00,
2013-08-03 04:38:00,45.6,42.5,29.92,NNW,327,7.0,7.0,89,0.00,,---,0.00,VWS V14.01,2013-08-03 10:38:00,
2013-08-03 04:43:00,45.6,42.5,29.92,NNW,327,0.0,0.0,89,0.00,,---,0.00,VWS V14.01,2013-08-03 10:43:00,
2013-08-03 04:48:00,45.6,42.5,29.93,NNW,327,0.0,0.0,89,0.00,,---,0.00,VWS V14.01,2013-08-03 10:48:00,
2013-08-03 04:53:00,45.5,42.5,29.93,NNW,327,0.0,0.0,89,0.00,,---,0.00,VWS V14.01,2013-08-03 10:53:00,
2013-08-03 04:58:00,45.3,42.3,29.93,NNW,327,2.0,2.0,89,0.00,,---,0.00,VWS V14.01,2013-08-03 10:58:00,
2013-08-03 05:03:00,45.1,42.1,29.93,NNW,327,0.0,0.0,89,0.00,,---,0.00,VWS V14.01,2013-08-03 11:03:00,
2013-08-03 05:08:00,45.0,42.0,29.93,NNW,327,0.0,0.0,89,0.00,,---,0.00,VWS V14.01,2013-08-03 11:08:00,
2013-08-03 05:13:00,44.7,41.7,29.93,NNW,327,0.0,0.0,89,0.00,,---,0.00,VWS V14.01,2013-08-03 11:13:00,
2013-08-03 05:18:00,44.5,41.5,29.93,NNW,327,0.0,0.0,89,0.00,,---,0.00,VWS V14.01,2013-08-03 11:18:00,
2013-08-03 05:23:00,44.4,41.7,29.93,NNW,327,0.0,0.0,90,0.00,,---,0.00,VWS V14.01,2013-08-03 11:23:00,
2013-08-03 05:28:00,44.2,41.5,29.93,NNW,327,0.0,0.0,90,0.00,,---,0.00,VWS V14.01,2013-08-03 11:28:00,
2013-08-03 05:34:00,44.1,41.7,29.93,NNW,327,4.0,4.0,91,0.00,,---,0.00,VWS V14.01,2013-08-03 11:34:00,
2013-08-03 05:38:00,44.0,41.5,29.93,NNW,327,4.0,4.0,91,0.00,,---,0.00,VWS V14.01,2013-08-03 11:38:00,
2013-08-03 05:43:00,43.9,41.5,29.94,NNW,327,3.0,3.0,91,0.00,,---,0.00,VWS V14.01,2013-08-03 11:43:00,
2013-08-03 05:48:00,44.0,41.5,29.94,NNW,327,0.0,0.0,91,0.00,,---,0.00,VWS V14.01,2013-08-03 11:48:00,
2013-08-03 05:54:00,44.1,41.7,29.94,NNW,327,0.0,0.0,91,0.00,,---,0.00,VWS V14.01,2013-08-03 11:54:00,
2013-08-03 05:59:00,44.2,41.7,29.94,NNW,327,0.0,0.0,91,0.00,,---,0.00,VWS V14.01,2013-08-03 11:59:00,
2013-08-03 06:04:00,44.2,41.7,29.94,NNW,327,0.0,0.0,91,0.00,,---,0.00,VWS V14.01,2013-08-03 12:04:00,
2013-08-03 06:09:00,44.3,41.8,29.95,NNW,327,0.0,0.0,91,0.00,,---,0.00,VWS V14.01,2013-08-03 12:09:00,
2013-08-03 06:14:00,44.2,41.5,29.95,NNW,327,0.0,0.0,90,0.00,,---,0.00,VWS V14.01,2013-08-03 12:14:00,
2013-08-03 06:19:00,44.2,41.5,29.95,NNW,327,0.0,2.0,90,0.00,,---,0.00,VWS V14.01,2013-08-03 12:19:00,
2013-08-03 06:24:00,44.0,41.5,29.96,NNW,327,1.0,2.0,91,0.00,,---,0.00,VWS V14.01,2013-08-03 12:24:00,
2013-08-03 06:29:00,44.0,41.5,29.96,NNW,327,0.0,0.0,91,0.00,,---,0.00,VWS V14.01,2013-08-03 12:29:00,
2013-08-03 06:34:00,44.0,41.5,29.96,NNW,327,0.0,0.0,91,0.00,,---,0.00,VWS V14.01,2013-08-03 12:34:00,
2013-08-03 06:39:00,44.0,41.5,29.97,NNW,327,0.0,0.0,91,0.00,,---,0.00,VWS V14.01,2013-08-03 12:39:00,
2013-08-03 06:44:00,43.9,41.5,29.97,NNW,327,0.0,0.0,91,0.00,,---,0.00,VWS V14.01,2013-08-03 12:44:00,
2013-08-03 06:49:00,43.9,41.5,29.97,NNW,327,1.0,1.0,91,0.00,,---,0.00,VWS V14.01,2013-08-03 12:49:00,
2013-08-03 06:54:00,43.9,41.5,29.97,NNW,327,0.0,0.0,91,0.00,,---,0.00,VWS V14.01,2013-08-03 12:54:00,
2013-08-03 06:59:00,43.8,41.3,29.97,NNW,327,0.0,0.0,91,0.00,,---,0.00,VWS V14.01,2013-08-03 12:59:00,
2013-08-03 07:04:00,43.7,41.5,29.97,NNW,327,3.0,3.0,92,0.00,,---,0.00,VWS V14.01,2013-08-03 13:04:00,
2013-08-03 07:09:00,43.9,41.7,29.97,NNW,327,2.0,3.0,92,0.00,,---,0.00,VWS V14.01,2013-08-03 13:09:00,
2013-08-03 07:14:00,44.2,42.3,29.97,NNW,327,0.0,3.0,93,0.00,,---,0.00,VWS V14.01,2013-08-03 13:14:00,
2013-08-03 07:19:00,44.5,42.6,29.97,NNW,327,0.0,0.0,93,0.00,,---,0.00,VWS V14.01,2013-08-03 13:19:00,
2013-08-03 07:24:00,44.7,42.8,29.97,NNW,327,0.0,0.0,93,0.00,,---,0.00,VWS V14.01,2013-08-03 13:24:00,
2013-08-03 07:29:00,44.7,42.5,29.97,NNW,327,3.0,3.0,92,0.00,,---,0.00,VWS V14.01,2013-08-03 13:29:00,
2013-08-03 07:34:00,44.5,42.3,29.98,NNW,327,0.0,0.0,92,0.00,,---,0.00,VWS V14.01,2013-08-03 13:34:00,
2013-08-03 07:39:00,44.5,42.3,29.98,NNW,327,0.0,0.0,92,0.00,,---,0.00,VWS V14.01,2013-08-03 13:39:00,
2013-08-03 07:44:00,44.6,42.7,29.98,NNW,327,3.0,4.0,93,0.00,,---,0.00,VWS V14.01,2013-08-03 13:44:00,
2013-08-03 07:49:00,44.9,43.0,29.98,NNW,327,0.0,0.0,93,0.00,,---,0.00,VWS V14.01,2013-08-03 13:49:00,
2013-08-03 07:54:00,45.2,43.3,29.98,NNW,327,3.0,3.0,93,0.00,,---,0.00,VWS V14.01,2013-08-03 13:54:00,
2013-08-03 07:59:00,45.2,43.3,29.98,NNW,327,3.0,3.0,93,0.00,,---,0.00,VWS V14.01,2013-08-03 13:59:00,
2013-08-03 08:04:00,45.4,43.5,29.98,NNW,327,2.0,2.0,93,0.00,,---,0.00,VWS V14.01,2013-08-03 14:04:00,
2013-08-03 08:09:00,45.6,43.7,29.98,NNW,327,0.0,0.0,93,0.00,,---,0.00,VWS V14.01,2013-08-03 14:09:00,
2013-08-03 08:14:00,45.8,44.2,29.98,NNW,327,0.0,0.0,94,0.00,,---,0.00,VWS V14.01,2013-08-03 14:14:00,
2013-08-03 08:19:00,46.6,45.2,29.97,NNW,327,0.0,0.0,95,0.00,,---,0.00,VWS V14.01,2013-08-03 14:19:00,
2013-08-03 08:24:00,47.9,46.8,29.98,NNW,327,0.0,0.0,96,0.00,,---,0.00,VWS V14.01,2013-08-03 14:24:00,
2013-08-03 08:29:00,48.9,47.5,29.98,NNW,327,0.0,0.0,95,0.00,,---,0.00,VWS V14.01,2013-08-03 14:29:00,
2013-08-03 08:34:00,50.3,48.9,29.98,NNW,327,2.0,2.0,95,0.00,,---,0.00,VWS V14.01,2013-08-03 14:34:00,
2013-08-03 08:39:00,51.6,49.4,29.97,NNW,327,0.0,1.0,92,0.00,,---,0.00,VWS V14.01,2013-08-03 14:39:00,
2013-08-03 08:44:00,53.0,50.2,29.97,NNW,327,0.0,0.0,90,0.00,,---,0.00,VWS V14.01,2013-08-03 14:44:00,
2013-08-03 08:49:00,54.5,49.8,29.97,NNW,327,0.0,0.0,84,0.00,,---,0.00,VWS V14.01,2013-08-03 14:49:00,
2013-08-03 08:54:00,55.0,48.3,29.97,NNW,327,1.0,2.0,78,0.00,,---,0.00,VWS V14.01,2013-08-03 14:54:00,
2013-08-03 08:59:00,55.7,49.0,29.97,NNW,327,0.0,0.0,78,0.00,,---,0.00,VWS V14.01,2013-08-03 14:59:00,
2013-08-03 09:04:00,56.5,49.7,29.97,NNW,327,0.0,0.0,78,0.00,,---,0.00,VWS V14.01,2013-08-03 15:04:00,
2013-08-03 09:09:00,57.1,49.6,29.97,NNW,327,3.0,3.0,76,0.00,,---,0.00,VWS V14.01,2013-08-03 15:09:00,
2013-08-03 09:15:00,57.5,49.3,29.96,NNW,327,0.0,2.0,74,0.00,,---,0.00,VWS V14.01,2013-08-03 15:15:00,
2013-08-03 09:20:00,57.7,47.6,29.96,NNW,327,0.0,0.0,69,0.00,,---,0.00,VWS V14.01,2013-08-03 15:20:00,
2013-08-03 09:25:00,58.4,48.3,29.96,NNW,327,3.0,3.0,69,0.00,,---,0.00,VWS V14.01,2013-08-03 15:25:00,
2013-08-03 09:30:00,59.0,49.6,29.96,NNW,327,0.0,1.0,71,0.00,,---,0.00,VWS V14.01,2013-08-03 15:30:00,
2013-08-03 09:35:00,59.6,51.7,29.95,NNW,327,0.0,1.0,75,0.00,,---,0.00,VWS V14.01,2013-08-03 15:35:00,
2013-08-03 09:40:00,60.5,50.3,29.95,NNW,327,0.0,0.0,69,0.00,,---,0.00,VWS V14.01,2013-08-03 15:40:00,
2013-08-03 09:45:00,61.0,50.4,29.95,NNW,327,0.0,0.0,68,0.00,,---,0.00,VWS V14.01,2013-08-03 15:45:00,
2013-08-03 09:50:00,61.3,51.1,29.94,NNW,327,0.0,0.0,69,0.00,,---,0.00,VWS V14.01,2013-08-03 15:50:00,
2013-08-03 09:55:00,62.7,52.4,29.94,NNW,327,1.0,3.0,69,0.00,,---,0.00,VWS V14.01,2013-08-03 15:55:00,
2013-08-03 10:00:00,62.7,52.0,29.94,NNW,327,0.0,0.0,68,0.00,,---,0.00,VWS V14.01,2013-08-03 16:00:00,
2013-08-03 10:05:00,63.9,53.5,29.93,NNW,327,0.0,0.0,69,0.00,,---,0.00,VWS V14.01,2013-08-03 16:05:00,
2013-08-03 10:10:00,64.7,53.5,29.93,NNW,327,1.0,1.0,67,0.00,,---,0.00,VWS V14.01,2013-08-03 16:10:00,
2013-08-03 10:15:00,65.2,51.4,29.93,NNW,327,1.0,1.0,61,0.00,,---,0.00,VWS V14.01,2013-08-03 16:15:00,
2013-08-03 10:20:00,65.5,52.2,29.92,NNW,327,0.0,1.0,62,0.00,,---,0.00,VWS V14.01,2013-08-03 16:20:00,
2013-08-03 10:25:00,66.5,53.1,29.92,NNW,327,1.0,2.0,62,0.00,,---,0.00,VWS V14.01,2013-08-03 16:25:00,
2013-08-03 10:30:00,66.7,50.5,29.92,NNW,327,0.0,0.0,56,0.00,,---,0.00,VWS V14.01,2013-08-03 16:30:00,
2013-08-03 10:35:00,67.0,49.8,29.92,NW,320,4.0,6.0,54,0.00,,---,0.00,VWS V14.01,2013-08-03 16:35:00,
2013-08-03 10:40:00,67.0,49.3,29.92,NW,317,5.0,5.0,53,0.00,,---,0.00,VWS V14.01,2013-08-03 16:40:00,
2013-08-03 10:45:00,66.7,50.5,29.92,NW,315,0.0,0.0,56,0.00,,---,0.00,VWS V14.01,2013-08-03 16:45:00,
2013-08-03 10:50:00,67.1,49.4,29.92,NW,315,1.0,1.0,53,0.00,,---,0.00,VWS V14.01,2013-08-03 16:50:00,
2013-08-03 10:55:00,67.2,48.5,29.92,NW,314,4.0,5.0,51,0.00,,---,0.00,VWS V14.01,2013-08-03 16:55:00,
2013-08-03 11:00:00,67.4,48.1,29.92,NW,306,5.0,5.0,50,0.00,,---,0.00,VWS V14.01,2013-08-03 17:00:00,
2013-08-03 11:05:00,68.0,48.7,29.92,WNW,292,3.0,4.0,50,0.00,,---,0.00,VWS V14.01,2013-08-03 17:05:00,
2013-08-03 11:10:00,68.8,48.3,29.91,WNW,292,0.0,0.0,48,0.00,,---,0.00,VWS V14.01,2013-08-03 17:10:00,
2013-08-03 11:15:00,68.8,49.4,29.91,WSW,244,4.0,4.0,50,0.00,,---,0.00,VWS V14.01,2013-08-03 17:15:00,
2013-08-03 11:20:00,68.9,47.9,29.91,WSW,245,5.0,5.0,47,0.00,,---,0.00,VWS V14.01,2013-08-03 17:20:00,
2013-08-03 11:25:00,69.2,47.6,29.91,WSW,244,0.0,1.0,46,0.00,,---,0.00,VWS V14.01,2013-08-03 17:25:00,
2013-08-03 11:30:00,70.7,50.1,29.91,SW,232,4.0,5.0,48,0.00,,---,0.00,VWS V14.01,2013-08-03 17:30:00,
2013-08-03 11:35:00,70.4,48.1,29.91,SW,225,8.0,9.0,45,0.00,,---,0.00,VWS V14.01,2013-08-03 17:35:00,
2013-08-03 11:40:00,69.8,48.1,29.91,SW,228,7.0,7.0,46,0.00,,---,0.00,VWS V14.01,2013-08-03 17:40:00,
2013-08-03 11:45:00,69.7,48.6,29.90,SW,228,0.0,3.0,47,0.00,,---,0.00,VWS V14.01,2013-08-03 17:45:00,
2013-08-03 11:50:00,70.0,50.5,29.90,SW,228,3.0,5.0,50,0.00,,---,0.00,VWS V14.01,2013-08-03 17:50:00,
2013-08-03 11:55:00,70.0,51.1,29.90,SW,229,4.0,5.0,51,0.00,,---,0.00,VWS V14.01,2013-08-03 17:55:00,
2013-08-03 12:00:00,70.3,50.8,29.90,SW,229,2.0,3.0,50,0.00,,---,0.00,VWS V14.01,2013-08-03 18:00:00,
2013-08-03 12:05:00,69.9,50.4,29.90,SW,229,5.0,5.0,50,0.00,,---,0.00,VWS V14.01,2013-08-03 18:05:00,
2013-08-03 12:10:00,70.2,47.3,29.89,SW,221,9.0,9.0,44,0.00,,---,0.00,VWS V14.01,2013-08-03 18:10:00,
2013-08-03 12:15:00,70.0,49.4,29.89,SW,221,7.0,7.0,48,0.00,,---,0.00,VWS V14.01,2013-08-03 18:15:00,
2013-08-03 12:21:00,69.8,47.5,29.89,SW,221,1.0,2.0,45,0.00,,---,0.00,VWS V14.01,2013-08-03 18:21:00,
2013-08-03 12:26:00,69.5,48.4,29.88,SW,221,3.0,3.0,47,0.00,,---,0.00,VWS V14.01,2013-08-03 18:26:00,
2013-08-03 12:30:00,69.1,48.0,29.89,SW,221,4.0,6.0,47,0.00,,---,0.00,VWS V14.01,2013-08-03 18:30:00,
2013-08-03 12:36:00,68.8,49.4,29.88,SW,221,3.0,4.0,50,0.00,,---,0.00,VWS V14.01,2013-08-03 18:36:00,
2013-08-03 12:41:00,68.8,49.4,29.89,SW,221,6.0,6.0,50,0.00,,---,0.00,VWS V14.01,2013-08-03 18:41:00,
2013-08-03 12:46:00,69.0,48.0,29.89,SW,221,5.0,5.0,47,0.00,,---,0.00,VWS V14.01,2013-08-03 18:46:00,
2013-08-03 12:50:00,69.4,52.5,29.88,SW,220,5.0,7.0,55,0.00,,---,0.00,VWS V14.01,2013-08-03 18:50:00,
2013-08-03 12:56:00,70.8,52.8,29.88,South,182,17.0,18.0,53,0.00,,---,0.00,VWS V14.01,2013-08-03 18:56:00,
2013-08-03 13:01:00,70.8,51.8,29.87,South,178,12.0,15.0,51,0.00,,---,0.00,VWS V14.01,2013-08-03 19:01:00,
2013-08-03 13:06:00,70.2,51.2,29.87,South,183,13.0,14.0,51,0.00,,---,0.00,VWS V14.01,2013-08-03 19:06:00,
2013-08-03 13:11:00,71.3,52.3,29.87,South,185,13.0,16.0,51,0.00,,---,0.00,VWS V14.01,2013-08-03 19:11:00,
2013-08-03 13:16:00,71.7,48.0,29.87,South,169,10.0,14.0,43,0.00,,---,0.00,VWS V14.01,2013-08-03 19:16:00,
2013-08-03 13:21:00,71.8,50.5,29.87,SSE,156,11.0,15.0,47,0.00,,---,0.00,VWS V14.01,2013-08-03 19:21:00,
2013-08-03 13:26:00,71.3,49.5,29.88,SSW,200,10.0,15.0,46,0.00,,---,0.00,VWS V14.01,2013-08-03 19:26:00,
2013-08-03 13:31:00,70.7,47.7,29.88,SW,234,9.0,11.0,44,0.00,,---,0.00,VWS V14.01,2013-08-03 19:31:00,
2013-08-03 13:36:00,69.9,48.8,29.88,SSW,213,12.0,19.0,47,0.00,,---,0.00,VWS V14.01,2013-08-03 19:36:00,
2013-08-03 13:41:00,69.3,49.3,29.88,SW,219,17.0,17.0,49,0.00,,---,0.00,VWS V14.01,2013-08-03 19:41:00,
2013-08-03 13:46:00,68.7,50.9,29.88,SSW,213,15.0,18.0,53,0.00,,---,0.00,VWS V14.01,2013-08-03 19:46:00,
2013-08-03 13:51:00,68.2,49.9,29.88,SW,218,13.0,15.0,52,0.00,,---,0.00,VWS V14.01,2013-08-03 19:51:00,
2013-08-03 13:56:00,67.9,49.7,29.87,SW,229,18.0,18.0,52,0.00,,---,0.00,VWS V14.01,2013-08-03 19:56:00,
2013-08-03 14:01:00,68.0,50.2,29.87,SSW,213,7.0,7.0,53,0.00,,---,0.00,VWS V14.01,2013-08-03 20:01:00,
2013-08-03 14:06:00,68.3,49.5,29.87,SW,219,12.0,15.0,51,0.00,,---,0.00,VWS V14.01,2013-08-03 20:06:00,
2013-08-03 14:11:00,68.1,45.4,29.87,SSW,210,16.0,18.0,44,0.00,,---,0.00,VWS V14.01,2013-08-03 20:11:00,
2013-08-03 14:16:00,67.6,47.8,29.87,SW,236,11.0,17.0,49,0.00,,---,0.00,VWS V14.01,2013-08-03 20:16:00,
2013-08-03 14:21:00,67.4,48.1,29.87,WSW,243,10.0,11.0,50,0.00,,---,0.00,VWS V14.01,2013-08-03 20:21:00,
2013-08-03 14:26:00,67.4,48.1,29.88,WSW,250,4.0,5.0,50,0.00,,---,0.00,VWS V14.01,2013-08-03 20:26:00,
2013-08-03 14:31:00,67.6,48.8,29.88,WSW,244,6.0,10.0,51,0.00,,---,0.00,VWS V14.01,2013-08-03 20:31:00,
2013-08-03 14:36:00,67.6,49.9,29.88,WSW,255,7.0,9.0,53,0.00,,---,0.00,VWS V14.01,2013-08-03 20:36:00,
2013-08-03 14:41:00,67.5,49.3,29.88,West,272,6.0,8.0,52,0.00,,---,0.00,VWS V14.01,2013-08-03 20:41:00,
2013-08-03 14:46:00,67.3,49.1,29.88,West,272,5.0,7.0,52,0.00,,---,0.00,VWS V14.01,2013-08-03 20:46:00,
2013-08-03 14:51:00,67.1,48.9,29.88,West,271,4.0,5.0,52,0.00,,---,0.00,VWS V14.01,2013-08-03 20:51:00,
2013-08-03 14:56:00,67.0,50.3,29.88,SW,219,12.0,12.0,55,0.00,,---,0.00,VWS V14.01,2013-08-03 20:56:00,
2013-08-03 15:01:00,66.7,51.5,29.89,SW,223,6.0,6.0,58,0.00,,---,0.00,VWS V14.01,2013-08-03 21:01:00,
2013-08-03 15:06:00,66.3,47.7,29.89,NW,312,4.0,4.0,51,0.00,,---,0.00,VWS V14.01,2013-08-03 21:06:00,
2013-08-03 15:11:00,66.0,47.4,29.89,NW,315,10.0,10.0,51,0.00,,---,0.00,VWS V14.01,2013-08-03 21:11:00,
2013-08-03 15:16:00,65.5,47.9,29.90,NW,310,4.0,7.0,53,0.00,,---,0.00,VWS V14.01,2013-08-03 21:16:00,
2013-08-03 15:21:00,64.7,45.7,29.90,NNW,333,8.0,13.0,50,0.00,,---,0.00,VWS V14.01,2013-08-03 21:21:00,
2013-08-03 15:26:00,64.3,45.8,29.91,NNW,337,10.0,11.0,51,0.00,,---,0.00,VWS V14.01,2013-08-03 21:26:00,
2013-08-03 15:31:00,63.9,46.0,29.91,NNW,335,6.0,10.0,52,0.00,,---,0.00,VWS V14.01,2013-08-03 21:31:00,
2013-08-03 15:36:00,63.6,45.7,29.91,NW,320,8.0,9.0,52,0.00,,---,0.00,VWS V14.01,2013-08-03 21:36:00,
2013-08-03 15:42:00,63.4,46.0,29.91,NW,325,7.0,10.0,53,0.00,,---,0.00,VWS V14.01,2013-08-03 21:42:00,
2013-08-03 15:47:00,63.0,46.6,29.91,NW,317,7.0,11.0,55,0.00,,---,0.00,VWS V14.01,2013-08-03 21:47:00,
2013-08-03 15:52:00,62.6,46.7,29.92,NNW,339,7.0,9.0,56,0.00,,---,0.00,VWS V14.01,2013-08-03 21:52:00,
2013-08-03 15:57:00,62.2,45.8,29.92,NNW,348,9.0,10.0,55,0.00,,---,0.00,VWS V14.01,2013-08-03 21:57:00,
2013-08-03 16:02:00,61.6,46.2,29.92,North,5,12.0,12.0,57,0.00,,---,0.00,VWS V14.01,2013-08-03 22:02:00,
2013-08-03 16:07:00,61.2,46.8,29.93,WNW,287,4.0,8.0,59,0.00,,---,0.00,VWS V14.01,2013-08-03 22:07:00,
2013-08-03 16:12:00,60.7,48.5,29.93,West,270,2.0,4.0,64,0.00,,---,0.00,VWS V14.01,2013-08-03 22:12:00,
2013-08-03 16:17:00,60.1,47.9,29.93,West,269,2.0,5.0,64,0.00,,---,0.00,VWS V14.01,2013-08-03 22:17:00,
2013-08-03 16:22:00,59.7,47.1,29.93,West,269,0.0,2.0,63,0.00,,---,0.00,VWS V14.01,2013-08-03 22:22:00,
2013-08-03 16:27:00,59.3,45.9,29.94,West,271,4.0,5.0,61,0.00,,---,0.00,VWS V14.01,2013-08-03 22:27:00,
2013-08-03 16:32:00,59.4,47.7,29.95,WSW,254,6.0,7.0,65,0.00,,---,0.00,VWS V14.01,2013-08-03 22:32:00,
2013-08-03 16:37:00,59.2,49.0,29.95,SSW,198,10.0,11.0,69,0.00,,---,0.00,VWS V14.01,2013-08-03 22:37:00,
2013-08-03 16:42:00,58.8,48.7,29.96,SSW,206,9.0,9.0,69,0.00,,---,0.00,VWS V14.01,2013-08-03 22:42:00,
2013-08-03 16:47:00,58.3,48.2,29.97,SSW,194,7.0,8.0,69,0.00,,---,0.00,VWS V14.01,2013-08-03 22:47:00,
2013-08-03 16:52:00,57.6,47.9,29.97,South,186,6.0,7.0,70,0.01,,---,0.01,VWS V14.01,2013-08-03 22:52:00,
2013-08-03 16:57:00,56.8,48.2,29.97,East,92,11.0,11.0,73,0.02,,---,0.02,VWS V14.01,2013-08-03 22:57:00,
2013-08-03 17:02:00,55.7,47.5,29.96,ENE,71,8.0,8.0,74,0.03,,---,0.03,VWS V14.01,2013-08-03 23:02:00,
2013-08-03 17:07:00,55.2,47.8,29.97,East,90,8.0,8.0,76,0.04,,---,0.04,VWS V14.01,2013-08-03 23:07:00,
2013-08-03 17:12:00,54.8,47.0,29.97,East,92,9.0,9.0,75,0.05,,---,0.05,VWS V14.01,2013-08-03 23:12:00,
2013-08-03 17:17:00,54.8,47.0,29.97,East,88,0.0,3.0,75,0.05,,---,0.05,VWS V14.01,2013-08-03 23:17:00,
2013-08-03 17:22:00,54.7,48.0,29.98,East,90,0.0,0.0,78,0.06,,---,0.06,VWS V14.01,2013-08-03 23:22:00,
2013-08-03 17:27:00,54.7,48.3,29.98,East,90,5.0,5.0,79,0.06,,---,0.06,VWS V14.01,2013-08-03 23:27:00,
2013-08-03 17:32:00,54.4,47.7,29.97,East,79,6.0,8.0,78,0.06,,---,0.06,VWS V14.01,2013-08-03 23:32:00,
2013-08-03 17:38:00,54.5,48.5,29.97,SE,140,2.0,5.0,80,0.06,,---,0.06,VWS V14.01,2013-08-03 23:38:00,
2013-08-03 17:43:00,54.5,49.5,29.98,SSW,206,2.0,3.0,83,0.06,,---,0.06,VWS V14.01,2013-08-03 23:43:00,
2013-08-03 17:48:00,54.3,49.6,29.98,SSW,207,6.0,7.0,84,0.06,,---,0.06,VWS V14.01,2013-08-03 23:48:00,
2013-08-03 17:52:00,54.0,49.3,29.98,SSW,208,7.0,7.0,84,0.06,,---,0.07,VWS V14.01,2013-08-03 23:52:00,
2013-08-03 17:57:00,53.9,48.5,29.98,ESE,120,4.0,8.0,82,0.05,,---,0.07,VWS V14.01,2013-08-03 23:57:00,
2013-08-03 18:03:00,53.9,49.2,29.98,East,100,0.0,0.0,84,0.04,,---,0.07,VWS V14.01,2013-08-04 00:03:00,
2013-08-03 18:08:00,53.8,48.8,29.99,SSW,203,3.0,3.0,83,0.03,,---,0.07,VWS V14.01,2013-08-04 00:08:00,
2013-08-03 18:12:00,53.8,49.1,29.99,SSW,203,0.0,3.0,84,0.02,,---,0.07,VWS V14.01,2013-08-04 00:12:00,
2013-08-03 18:18:00,53.8,49.4,29.99,SSW,203,0.0,0.0,85,0.02,,---,0.07,VWS V14.01,2013-08-04 00:18:00,
2013-08-03 18:23:00,53.7,49.0,29.98,ESE,121,4.0,4.0,84,0.01,,---,0.07,VWS V14.01,2013-08-04 00:23:00,
2013-08-03 18:28:00,53.8,49.4,29.98,ESE,122,0.0,0.0,85,0.01,,---,0.07,VWS V14.01,2013-08-04 00:28:00,
2013-08-03 18:33:00,53.8,49.4,29.98,ESE,122,0.0,2.0,85,0.01,,---,0.07,VWS V14.01,2013-08-04 00:33:00,
2013-08-03 18:38:00,53.8,49.1,29.97,ESE,121,3.0,4.0,84,0.02,,---,0.08,VWS V14.01,2013-08-04 00:38:00,
2013-08-03 18:43:00,53.8,49.4,29.96,East,81,5.0,5.0,85,0.02,,---,0.08,VWS V14.01,2013-08-04 00:43:00,
2013-08-03 18:48:00,53.8,49.7,29.97,West,281,5.0,5.0,86,0.02,,---,0.08,VWS V14.01,2013-08-04 00:48:00,
2013-08-03 18:53:00,53.8,49.7,29.97,West,267,2.0,4.0,86,0.01,,---,0.08,VWS V14.01,2013-08-04 00:53:00,
2013-08-03 18:58:00,53.8,49.1,29.97,West,271,6.0,6.0,84,0.01,,---,0.08,VWS V14.01,2013-08-04 00:58:00,
2013-08-03 19:03:00,54.2,49.5,29.98,WNW,291,4.0,5.0,84,0.01,,---,0.08,VWS V14.01,2013-08-04 01:03:00,
2013-08-03 19:08:00,54.3,49.6,29.98,West,271,6.0,7.0,84,0.01,,---,0.08,VWS V14.01,2013-08-04 01:08:00,
2013-08-03 19:13:00,54.2,49.8,29.98,West,271,4.0,6.0,85,0.01,,---,0.08,VWS V14.01,2013-08-04 01:13:00,
2013-08-03 19:18:00,54.1,49.4,29.97,West,271,4.0,4.0,84,0.01,,---,0.08,VWS V14.01,2013-08-04 01:18:00,
2013-08-03 19:23:00,54.2,50.1,29.97,West,271,0.0,0.0,86,0.01,,---,0.08,VWS V14.01,2013-08-04 01:23:00,
2013-08-03 19:28:00,54.2,50.1,29.97,West,271,0.0,0.0,86,0.01,,---,0.08,VWS V14.01,2013-08-04 01:28:00,
2013-08-03 19:33:00,54.1,49.7,29.97,West,271,0.0,0.0,85,0.01,,---,0.08,VWS V14.01,2013-08-04 01:33:00,
2013-08-03 19:38:00,54.1,50.0,29.97,West,271,0.0,0.0,86,0.00,,---,0.08,VWS V14.01,2013-08-04 01:38:00,
2013-08-03 19:43:00,54.0,49.6,29.97,West,271,0.0,0.0,85,0.00,,---,0.08,VWS V14.01,2013-08-04 01:43:00,
2013-08-03 19:48:00,53.8,49.1,29.97,West,271,0.0,0.0,84,0.00,,---,0.08,VWS V14.01,2013-08-04 01:48:00,
2013-08-03 19:53:00,53.6,48.9,29.96,West,271,2.0,2.0,84,0.00,,---,0.08,VWS V14.01,2013-08-04 01:53:00,
2013-08-03 19:58:00,53.4,48.7,29.97,West,271,0.0,0.0,84,0.00,,---,0.08,VWS V14.01,2013-08-04 01:58:00,
2013-08-03 20:03:00,53.3,48.6,29.97,West,271,1.0,1.0,84,0.00,,---,0.08,VWS V14.01,2013-08-04 02:03:00,
2013-08-03 20:08:00,52.8,48.1,29.97,West,271,0.0,0.0,84,0.00,,---,0.08,VWS V14.01,2013-08-04 02:08:00,
2013-08-03 20:13:00,52.2,48.2,29.97,West,271,0.0,0.0,86,0.00,,---,0.08,VWS V14.01,2013-08-04 02:13:00,
2013-08-03 20:18:00,51.9,48.2,29.98,West,271,0.0,0.0,87,0.00,,---,0.08,VWS V14.01,2013-08-04 02:18:00,
2013-08-03 20:23:00,51.6,47.6,29.98,West,271,2.0,2.0,86,0.00,,---,0.08,VWS V14.01,2013-08-04 02:23:00,
2013-08-03 20:28:00,51.3,47.3,29.99,West,271,0.0,0.0,86,0.00,,---,0.08,VWS V14.01,2013-08-04 02:28:00,
2013-08-03 20:33:00,50.9,47.2,29.99,West,271,0.0,0.0,87,0.00,,---,0.08,VWS V14.01,2013-08-04 02:33:00,
2013-08-03 20:38:00,50.6,47.2,29.99,West,271,3.0,3.0,88,0.00,,---,0.08,VWS V14.01,2013-08-04 02:38:00,
2013-08-03 20:43:00,50.5,47.4,29.99,West,271,0.0,0.0,89,0.00,,---,0.08,VWS V14.01,2013-08-04 02:43:00,
2013-08-03 20:48:00,50.4,47.3,30.00,West,271,0.0,0.0,89,0.00,,---,0.08,VWS V14.01,2013-08-04 02:48:00,
2013-08-03 20:53:00,50.1,46.4,30.00,West,271,3.0,3.0,87,0.00,,---,0.08,VWS V14.01,2013-08-04 02:53:00,
2013-08-03 20:58:00,49.8,46.4,30.01,West,271,2.0,2.0,88,0.00,,---,0.08,VWS V14.01,2013-08-04 02:58:00,
2013-08-03 21:03:00,49.6,46.5,30.01,West,271,0.0,0.0,89,0.00,,---,0.08,VWS V14.01,2013-08-04 03:03:00,
2013-08-03 21:08:00,49.5,46.4,30.02,West,271,0.0,0.0,89,0.00,,---,0.08,VWS V14.01,2013-08-04 03:08:00,
2013-08-03 21:13:00,49.3,46.2,30.02,West,271,0.0,0.0,89,0.00,,---,0.08,VWS V14.01,2013-08-04 03:13:00,
2013-08-03 21:18:00,49.3,46.5,30.02,West,271,0.0,0.0,90,0.00,,---,0.08,VWS V14.01,2013-08-04 03:18:00,
2013-08-03 21:23:00,49.1,46.0,30.02,West,271,2.0,2.0,89,0.00,,---,0.08,VWS V14.01,2013-08-04 03:23:00,
2013-08-03 21:28:00,48.7,45.9,30.03,West,271,0.0,0.0,90,0.00,,---,0.08,VWS V14.01,2013-08-04 03:28:00,
2013-08-03 21:33:00,48.4,45.6,30.03,West,271,4.0,4.0,90,0.00,,---,0.08,VWS V14.01,2013-08-04 03:33:00,
2013-08-03 21:38:00,48.0,45.2,30.03,West,271,6.0,6.0,90,0.00,,---,0.08,VWS V14.01,2013-08-04 03:38:00,
2013-08-03 21:43:00,47.6,44.8,30.04,West,271,5.0,7.0,90,0.00,,---,0.08,VWS V14.01,2013-08-04 03:43:00,
2013-08-03 21:48:00,47.6,45.4,30.04,West,271,3.0,4.0,92,0.00,,---,0.08,VWS V14.01,2013-08-04 03:48:00,
2013-08-03 21:53:00,47.6,45.4,30.04,West,271,3.0,3.0,92,0.00,,---,0.08,VWS V14.01,2013-08-04 03:53:00,
2013-08-03 21:58:00,47.5,45.3,30.04,West,271,5.0,5.0,92,0.00,,---,0.08,VWS V14.01,2013-08-04 03:58:00,
2013-08-03 22:01:00,47.5,45.3,30.04,West,271,3.0,3.0,92,0.00,,---,0.08,VWS V14.01,2013-08-04 04:01:00,
2013-08-03 22:02:00,47.4,45.2,30.04,West,271,3.0,4.0,92,0.00,,---,0.08,VWS V14.01,2013-08-04 04:02:00,
2013-08-03 22:07:00,47.2,44.7,30.04,West,271,5.0,5.0,91,0.00,,---,0.08,VWS V14.01,2013-08-04 04:07:00,
2013-08-03 22:13:00,46.9,44.4,30.04,West,277,8.0,10.0,91,0.00,,---,0.08,VWS V14.01,2013-08-04 04:13:00,
2013-08-03 22:18:00,46.9,44.7,30.05,West,279,5.0,6.0,92,0.00,,---,0.08,VWS V14.01,2013-08-04 04:18:00,
2013-08-03 22:23:00,47.0,44.8,30.05,West,279,4.0,6.0,92,0.00,,---,0.08,VWS V14.01,2013-08-04 04:23:00,
2013-08-03 22:28:00,47.1,44.9,30.05,West,279,0.0,4.0,92,0.00,,---,0.08,VWS V14.01,2013-08-04 04:28:00,
2013-08-03 22:33:00,47.2,45.0,30.05,West,279,3.0,3.0,92,0.00,,---,0.08,VWS V14.01,2013-08-04 04:33:00,
2013-08-03 22:38:00,47.0,44.8,30.05,West,279,0.0,0.0,92,0.00,,---,0.08,VWS V14.01,2013-08-04 04:38:00,
2013-08-03 22:43:00,46.8,44.3,30.05,West,279,3.0,3.0,91,0.00,,---,0.08,VWS V14.01,2013-08-04 04:43:00,
2013-08-03 22:48:00,46.6,44.1,30.06,West,279,0.0,0.0,91,0.00,,---,0.08,VWS V14.01,2013-08-04 04:48:00,
2013-08-03 22:53:00,46.5,44.0,30.06,West,279,0.0,0.0,91,0.00,,---,0.08,VWS V14.01,2013-08-04 04:53:00,
2013-08-03 22:58:00,46.1,43.3,30.06,West,279,3.0,3.0,90,0.00,,---,0.08,VWS V14.01,2013-08-04 04:58:00,
2013-08-03 23:03:00,45.6,42.8,30.06,West,279,5.0,6.0,90,0.00,,---,0.08,VWS V14.01,2013-08-04 05:03:00,
2013-08-03 23:08:00,45.7,43.5,30.06,West,279,6.0,6.0,92,0.00,,---,0.08,VWS V14.01,2013-08-04 05:08:00,
2013-08-03 23:13:00,45.5,43.0,30.07,West,279,4.0,5.0,91,0.00,,---,0.08,VWS V14.01,2013-08-04 05:13:00,
2013-08-03 23:18:00,45.4,43.2,30.08,West,279,0.0,0.0,92,0.00,,---,0.08,VWS V14.01,2013-08-04 05:18:00,
2013-08-03 23:23:00,45.1,42.6,30.08,West,279,3.0,5.0,91,0.00,,---,0.08,VWS V14.01,2013-08-04 05:23:00,
2013-08-03 23:28:00,44.9,42.7,30.08,West,279,2.0,4.0,92,0.00,,---,0.08,VWS V14.01,2013-08-04 05:28:00,
2013-08-03 23:33:00,45.2,43.3,30.08,West,279,3.0,3.0,93,0.00,,---,0.08,VWS V14.01,2013-08-04 05:33:00,
2013-08-03 23:38:00,45.4,43.5,30.08,West,279,4.0,4.0,93,0.00,,---,0.08,VWS V14.01,2013-08-04 05:38:00,
2013-08-03 23:43:00,45.5,43.6,30.08,West,279,4.0,4.0,93,0.00,,---,0.08,VWS V14.01,2013-08-04 05:43:00,
2013-08-03 23:48:00,45.0,42.8,30.08,West,279,7.0,7.0,92,0.00,,---,0.08,VWS V14.01,2013-08-04 05:48:00,
2013-08-03 23:53:00,44.5,42.3,30.08,West,279,6.0,6.0,92,0.00,,---,0.08,VWS V14.01,2013-08-04 05:53:00,
2013-08-03 23:58:00,44.3,42.1,30.08,West,279,2.0,3.0,92,0.00,,---,0.08,VWS V14.01,2013-08-04 05:58:00,